VA3DLF Weather Reports


time (UTC)temp
C
wind
direction
speed
KPH
gust
KPH
rain 1hr
cm
rain 24hr
cm
rain mn
cm
humidity
%
barometer
mb
20171217095048 -20 24 1.6 0.0 0.00 0.00 0.00
20171217094548 -20 31 3.2 4.8 0.00 0.00 0.00
20171217093545 -20 41 0.0 0.0 0.00 0.00 0.00
20171217093045 -20 41 0.0 0.0 0.00 0.00 0.00
20171217092545 -19 41 0.0 0.0 0.00 0.00 0.00
20171217091043 -18 41 0.0 0.0 0.00 0.00 0.00
20171217090039 -18 41 0.0 0.0 0.00 0.00 0.00
20171217085036 -18 41 0.0 0.0 0.00 0.00 0.00
20171217084536 -18 41 0.0 0.0 0.00 0.00 0.00
20171217084036 -17 41 0.0 0.0 0.00 0.00 0.00
20171217083033 -17 25 1.6 0.0 0.00 0.00 0.00
20171217082533 -17 42 1.6 0.0 0.00 0.00 0.00
20171217082030 -17 27 3.2 6.4 0.00 0.00 0.00
20171217081530 -17 32 3.2 3.2 0.00 0.00 0.00
20171217081031 -17 41 3.2 3.2 0.00 0.00 0.00
20171217080528 -17 39 3.2 4.8 0.00 0.00 0.00
20171217080028 -17 31 3.2 1.6 0.00 0.00 0.00
20171217075025 -16 66 6.4 4.8 0.00 0.00 0.00
20171217074525 -16 46 8.0 4.8 0.00 0.00 0.00
20171217074025 -16 45 6.4 6.4 0.00 0.00 0.00
20171217073522 -16 45 4.8 6.4 0.00 0.00 0.00
20171217073023 -16 45 1.6 4.8 0.00 0.00 0.00
20171217072523 -16 34 1.6 1.6 0.00 0.00 0.00
20171217071520 -16 23 1.6 1.6 0.00 0.00 0.00
20171217071020 -16 37 3.2 6.4 0.00 0.00 0.00
20171217065515 -16 45 1.6 1.6 0.00 0.00 0.00
20171217065013 -16 38 1.6 1.6 0.00 0.00 0.00
20171217064513 -16 52 3.2 3.2 0.00 0.00 0.00
20171217063510 -15 58 1.6 0.0 0.00 0.00 0.00
20171217063010 -15 46 3.2 3.2 0.00 0.00 0.00
20171217061003 -16 39 3.2 1.6 0.00 0.00 0.00
20171217060500 -16 27 4.8 4.8 0.00 0.00 0.00
20171217060000 -16 38 4.8 11.3 0.00 0.00 0.00
20171217055500 -16 39 8.0 8.0 0.00 0.00 0.00
20171217054957 -16 76 4.8 4.8 0.00 0.00 0.00
20171217054458 -16 70 6.4 6.4 0.00 0.00 0.00
20171217054338 -16 48 6.4 4.8 0.00 0.00 0.00
20171217053958 -16 48 6.4 4.8 0.00 0.00 0.00
20171217052455 -16 39 3.2 4.8 0.00 0.00 0.00
20171217051953 -16 86 3.2 3.2 0.00 0.00 0.00
20171217050953 -15 53 3.2 1.6 0.00 0.00 0.00
20171217045951 -15 53 4.8 9.7 0.00 0.00 0.00
20171217044950 -15 75 4.8 3.2 0.00 0.00 0.00
20171217044448 -15 41 6.4 6.4 0.00 0.00 0.00
20171217043949 -15 27 6.4 6.4 0.00 0.00 0.00
20171217043445 -15 56 3.2 1.6 0.00 0.00 0.00
20171217042947 -15 38 8.0 8.0 0.00 0.00 0.00
20171217041943 -15 30 9.7 9.7 0.00 0.00 0.00
20171217041442 -14 49 9.7 9.7 0.00 0.00 0.00
20171217040942 -14 46 11.3 11.3 0.00 0.00 0.00
20171217040439 -14 46 8.0 8.0 0.00 0.00 0.00
20171217035439 -15 46 4.8 9.7 0.00 0.00 0.00
20171217034936 -14 39 6.4 8.0 0.00 0.00 0.00
20171217034436 -15 28 4.8 6.4 0.00 0.00 0.00
20171217033936 -15 31 4.8 3.2 0.00 0.00 0.00
20171217033434 -15 44 3.2 6.4 0.00 0.00 0.00
20171217032934 -15 100 3.2 1.6 0.00 0.00 0.00
20171217032512 -15 1 0.0 0.0 0.00 0.00 0.00
20171217032434 -15 1 0.0 0.0 0.00 0.00 0.00
20171217031931 -14 41 3.2 0.0 0.00 0.00 0.00
20171217031431 -14 49 4.8 4.8 0.00 0.00 0.00
20171217030932 -14 44 3.2 3.2 0.00 0.00 0.00
20171217030429 -14 44 4.8 4.8 0.00 0.00 0.00
20171217025429 -14 45 4.8 4.8 0.00 0.00 0.00
20171217024927 -13 32 4.8 6.4 0.00 0.00 0.00
20171217024426 -14 59 6.4 4.8 0.00 0.00 0.00
20171217023926 -14 46 6.4 6.4 0.00 0.00 0.00
20171217023423 -14 55 4.8 4.8 0.00 0.00 0.00
20171217021920 -14 35 1.6 3.2 0.00 0.00 0.00
20171217020921 -14 58 0.0 3.2 0.00 0.00 0.00
20171217020417 -13 56 1.6 1.6 0.00 0.00 0.00
20171217015417 -13 42 3.2 1.6 0.00 0.00 0.00
20171217014915 -13 70 3.2 1.6 0.00 0.00 0.00
20171217013915 -13 37 3.2 4.8 0.00 0.00 0.00
20171217013413 -13 37 6.4 4.8 0.00 0.00 0.00
20171217012913 -13 44 6.4 8.0 0.00 0.00 0.00
20171217011911 -13 28 4.8 4.8 0.00 0.00 0.00
20171217011411 -13 39 4.8 6.4 0.00 0.00 0.00
20171217010912 -15 32 3.2 3.2 0.00 0.00 0.00
20171217010409 -14 24 3.2 8.0 0.00 0.00 0.00
20171217005410 -13 11 0.0 1.6 0.00 0.00 0.00
20171217004408 -12 24 6.4 4.8 0.00 0.00 0.00
20171217003908 -12 24 6.4 9.7 0.00 0.00 0.00
20171217003408 -12 352 3.2 4.8 0.00 0.00 0.00
20171217002906 -12 329 1.6 3.2 0.00 0.00 0.00
20171217002407 -12 339 3.2 3.2 0.00 0.00 0.00
20171217001904 -12 307 3.2 3.2 0.00 0.00 0.00
20171217000905 -12 308 1.6 1.6 0.00 0.00 0.00
20171217000402 -12 304 0.0 1.6 0.00 0.00 0.00
20171216235902 -11 267 0.0 0.0 0.00 0.00 0.00
20171216235402 -11 301 4.8 1.6 0.00 0.00 0.00
20171216234900 -11 318 4.8 6.4 0.00 0.00 0.00
20171216233902 -12 267 0.0 0.0 0.00 0.00 0.00
20171216232859 -12 276 0.0 0.0 0.00 0.00 0.00
20171216232359 -12 274 0.0 0.0 0.00 0.00 0.00
20171216230857 -11 295 0.0 0.0 0.00 0.00 0.00
20171216225854 -11 283 0.0 0.0 0.00 0.00 0.00
20171216225354 -11 300 1.6 1.6 0.00 0.00 0.00
20171216224852 -11 309 0.0 0.0 0.00 0.00 0.00
20171216224352 -11 309 0.0 0.0 0.00 0.00 0.00
20171216223350 -11 283 0.0 0.0 0.00 0.00 0.00
20171216222851 -11 283 0.0 0.0 0.00 0.00 0.00
20171216221848 -11 283 0.0 0.0 0.00 0.00 0.00
20171216221349 -10 349 0.0 0.0 0.00 0.00 0.00
20171216220347 -10 349 0.0 0.0 0.00 0.00 0.00
20171216215847 -9 349 0.0 0.0 0.00 0.00 0.00
20171216215348 -9 325 3.2 4.8 0.00 0.00 0.00
20171216213847 -7 300 0.0 0.0 0.00 0.00 0.00
20171216212845 -7 318 4.8 3.2 0.00 0.00 0.00
20171216212346 -6 308 4.8 3.2 0.00 0.00 0.00
20171216211843 -6 311 1.6 1.6 0.00 0.00 0.00
20171216211344 -6 322 0.0 0.0 0.00 0.00 0.00
20171216210844 -6 319 4.8 4.8 0.00 0.00 0.00
20171216210342 -6 300 6.4 9.7 0.00 0.00 0.00
20171216205842 -6 323 11.3 9.7 0.00 0.00 0.00
20171216204840 -5 329 9.7 9.7 0.00 0.00 0.00
20171216204341 -5 322 9.7 9.7 0.00 0.00 0.00
20171216203841 -5 319 12.9 11.3 0.00 0.00 0.00
20171216203339 -5 332 8.0 11.3 0.00 0.00 0.00
20171216202339 -5 300 14.5 16.1 0.00 0.00 0.00
20171216201837 -5 319 9.7 9.7 0.00 0.00 0.00
20171216201338 -5 301 11.3 11.3 0.00 0.00 0.00
20171216200336 -4 309 12.9 12.9 0.00 0.00 0.00
20171216195336 -4 329 8.0 11.3 0.00 0.00 0.00
20171216194833 -5 340 9.7 4.8 0.00 0.00 0.00
20171216194333 -4 316 12.9 4.8 0.00 0.00 0.00
20171216193833 -4 323 14.5 14.5 0.00 0.00 0.00
20171216193331 -4 301 12.9 20.9 0.00 0.00 0.00
20171216192831 -4 314 12.9 17.7 0.00 0.00 0.00
20171216192333 -4 309 9.7 12.9 0.00 0.00 0.00
20171216191829 -4 309 16.1 9.7 0.00 0.00 0.00
20171216191330 -4 307 12.9 11.3 0.00 0.00 0.00
20171216190831 -4 330 19.3 14.5 0.00 0.00 0.00
20171216184327 -4 330 16.1 12.9 0.00 0.00 0.00
20171216183826 -3 318 12.9 11.3 0.00 0.00 0.00
20171216183324 -3 318 14.5 16.1 0.00 0.00 0.00
20171216182325 -3 343 9.7 14.5 0.00 0.00 0.00
20171216181822 -3 312 16.1 14.5 0.00 0.00 0.00
20171216180822 -3 330 11.3 16.1 0.00 0.00 0.00
20171216180319 -3 323 8.0 11.3 0.00 0.00 0.00
20171216175819 -3 336 11.3 9.7 0.00 0.00 0.00
20171216175318 -3 0 16.1 14.5 0.00 0.00 0.00
20171216174816 -3 6 11.3 9.7 0.00 0.00 0.00
20171216174316 -3 316 14.5 12.9 0.00 0.00 0.00
20171216173817 -3 308 11.3 17.7 0.00 0.00 0.00
20171216173314 -3 335 9.7 6.4 0.00 0.00 0.00
20171216172315 -3 335 12.9 9.7 0.00 0.00 0.00
20171216171812 -4 350 12.9 12.9 0.00 0.00 0.00
20171216171359 -3 10 11.3 11.3 0.00 0.00 0.00
20171216171313 -3 10 11.3 11.3 0.00 0.00 0.00
20171216170311 -4 311 9.7 12.9 0.00 0.00 0.00
20171216165811 -5 322 16.1 12.9 0.00 0.00 0.00
20171216165311 -4 318 14.5 16.1 0.00 0.00 0.00
20171216164812 -5 345 8.0 9.7 0.00 0.00 0.00
20171216164307 -5 342 16.1 12.9 0.00 0.00 0.00
20171216163808 -5 307 11.3 11.3 0.00 0.00 0.00
20171216163305 -5 330 9.7 9.7 0.00 0.00 0.00
20171216162805 -5 318 12.9 12.9 0.00 0.00 0.00
20171216162305 -5 311 12.9 11.3 0.00 0.00 0.00
20171216161803 -5 298 6.4 4.8 0.00 0.00 0.00
20171216160804 -5 338 11.3 16.1 0.00 0.00 0.00
20171216160301 -5 319 11.3 12.9 0.00 0.00 0.00
20171216155803 -5 333 12.9 17.7 0.00 0.00 0.00
20171216154758 -5 305 16.1 16.1 0.00 0.00 0.00
20171216154301 -5 325 9.7 9.7 0.00 0.00 0.00
20171216153759 -5 329 11.3 11.3 0.00 0.00 0.00
20171216153256 -5 319 9.7 12.9 0.00 0.00 0.00
20171216152804 -5 352 9.7 6.4 0.00 0.00 0.00
20171216152256 -6 8.0 20.9 0.00 0.00 0.00
20171216151754 -5 314 11.3 20.9 0.00 0.00 0.00
20171216151254 -5 319 11.3 9.7 0.00 0.00 0.00
20171216150754 -6 309 12.9 16.1 0.00 0.00 0.00
20171216150252 -6 322 14.5 17.7 0.00 0.00 0.00
20171216145752 -6 307 14.5 11.3 0.00 0.00 0.00
20171216145252 -6 311 11.3 11.3 0.00 0.00 0.00
20171216144249 -6 319 9.7 8.0 0.00 0.00 0.00
20171216143750 -6 305 12.9 16.1 0.00 0.00 0.00
20171216143247 -5 311 16.1 11.3 0.00 0.00 0.00
20171216142748 -5 294 9.7 12.9 0.00 0.00 0.00
20171216142247 -5 307 11.3 9.7 0.00 0.00 0.00
20171216141245 -6 284 12.9 16.1 0.00 0.00 0.00
20171216140745 -6 312 17.7 20.9 0.00 0.00 0.00
20171216140242 -5 300 14.5 16.1 0.00 0.00 0.00
20171216135742 -6 291 8.0 8.0 0.00 0.00 0.00
20171216134240 -6 269 11.3 9.7 0.00 0.00 0.00
20171216133237 -7 301 9.7 9.7 0.00 0.00 0.00
20171216132739 -7 290 11.3 11.3 0.00 0.00 0.00
20171216132238 -7 284 6.4 8.0 0.00 0.00 0.00
20171216131735 -8 278 4.8 8.0 0.00 0.00 0.00
20171216131235 -8 267 6.4 6.4 0.00 0.00 0.00
20171216130735 -8 277 6.4 9.7 0.00 0.00 0.00
20171216125732 -8 293 6.4 8.0 0.00 0.00 0.00
20171216125232 -8 290 6.4 6.4 0.00 0.00 0.00
20171216124228 -8 300 9.7 9.7 0.00 0.00 0.00
20171216123728 -8 293 8.0 4.8 0.00 0.00 0.00
20171216123225 -8 290 8.0 4.8 0.00 0.00 0.00
20171216122724 -8 288 6.4 8.0 0.00 0.00 0.00
20171216122225 -7 301 9.7 11.3 0.00 0.00 0.00
20171216121722 -8 301 9.7 14.5 0.00 0.00 0.00
20171216121222 -8 290 9.7 6.4 0.00 0.00 0.00
20171216120722 -8 298 8.0 8.0 0.00 0.00 0.00
20171216115718 -8 297 9.7 9.7 0.00 0.00 0.00
20171216115219 -7 307 8.0 8.0 0.00 0.00 0.00
20171216114715 -7 300 8.0 8.0 0.00 0.00 0.00
20171216114215 -7 316 6.4 11.3 0.00 0.00 0.00
20171216113211 -7 323 9.7 6.4 0.00 0.00 0.00
20171216112711 -7 301 6.4 8.0 0.00 0.00 0.00
20171216111707 -7 298 9.7 8.0 0.00 0.00 0.00
20171216111208 -7 288 11.3 11.3 0.00 0.00 0.00
20171216110205 -7 271 9.7 9.7 0.00 0.00 0.00
20171216105705 -7 294 12.9 8.0 0.00 0.00 0.00
20171216105205 -7 300 12.9 16.1 0.00 0.00 0.00
20171216104703 -7 276 11.3 11.3 0.00 0.00 0.00
20171216104202 -7 285 14.5 9.7 0.00 0.00 0.00
20171216103702 -7 288 11.3 14.5 0.00 0.00 0.00
20171216102659 -7 318 11.3 11.3 0.00 0.00 0.00
20171216102159 -7 281 11.3 9.7 0.00 0.00 0.00
20171216101155 -6 285 12.9 9.7 0.00 0.00 0.00
20171216100655 -6 287 9.7 11.3 0.00 0.00 0.00
20171216100153 -6 287 11.3 9.7 0.00 0.00 0.00
20171216095653 -7 294 12.9 14.5 0.00 0.00 0.00